This is the latest recevied weather packets stored in our database for station/object KH6DH-13. If no packets are shown the sender has not sent any weather packets the latest 10 day(s).
| Time | Temp. | Humidity | Pressure | Rain* | Wind** | Luminosity | Snow |
|---|---|---|---|---|---|---|---|
| 1777662523 | 23.33° C | - | - | 0 mm | 2.24 m/s, 55° | - | - |
| 1777661922 | 23.33° C | - | - | 0 mm | 3.13 m/s, 82° | - | - |
| 1777661321 | 23.33° C | - | - | 0 mm | 2.24 m/s, 21° | - | - |
| 1777660720 | 23.89° C | - | - | 0 mm | 1.79 m/s, 207° | - | - |
| 1777660119 | 23.33° C | - | - | 0 mm | 0.89 m/s, 276° | - | - |
| 1777659518 | 22.78° C | - | - | 0 mm | 2.24 m/s, 107° | - | - |
| 1777658917 | 22.78° C | - | - | 0 mm | 2.68 m/s, 15° | - | - |
| 1777658316 | 22.78° C | - | - | 0 mm | 4.02 m/s, 194° | - | - |
| 1777657715 | 22.78° C | - | - | 0 mm | 2.68 m/s, 48° | - | - |
| 1777657113 | 22.22° C | - | - | 0 mm | 1.79 m/s, 160° | - | - |
| 1777656512 | 22.78° C | - | - | 0.25 mm | 0 m/s | - | - |
| 1777655911 | 21.67° C | - | - | 0.25 mm | 0.45 m/s, 135° | - | - |
| 1777655310 | 22.22° C | - | - | 0.25 mm | 1.34 m/s, 86° | - | - |
| 1777654709 | 22.22° C | - | - | 0.25 mm | 2.24 m/s, 97° | - | - |
| 1777654108 | 22.22° C | - | - | 0.25 mm | 0.89 m/s, 359° | - | - |
| 1777653507 | 22.22° C | - | - | 0.25 mm | 1.34 m/s, 41° | - | - |
| 1777652906 | 22.22° C | - | - | 0.25 mm | 0.45 m/s, 53° | - | - |
| 1777652305 | 22.22° C | - | - | 0.25 mm | 0.89 m/s, 136° | - | - |
| 1777651704 | 22.22° C | - | - | 0.25 mm | 2.24 m/s, 129° | - | - |
| 1777651103 | 22.22° C | - | - | 0.25 mm | 1.34 m/s, 35° | - | - |
| 1777650502 | 22.22° C | - | - | 0.25 mm | 1.34 m/s, 201° | - | - |
| 1777649901 | 22.22° C | - | - | 0.25 mm | 0.89 m/s, 55° | - | - |
| 1777649300 | 22.78° C | - | - | 0 mm | 0.89 m/s, 80° | - | - |
| 1777648699 | 21.67° C | - | - | 0 mm | 1.79 m/s, 13° | - | - |
| 1777648098 | 22.78° C | - | - | 0 mm | 2.24 m/s, 82° | - | - |
* Rain latest hour (hover to see other rain measurements)
** Current wind speed in m/s (hover to see current wind gust speed)